Gulkana, AK

2:56 AM AKDT on September 21, 2017 (GMT -0800)
Gulkana

Weather History for PAGK - September, 2014

Change the Weather History Date:

Tuesday, September 2, 2014

  Actual Average Record
Temperature  
Mean Temperature 50 °F -  
Max Temperature 60 °F 59 °F 72 °F (1974)
Min Temperature 41 °F 37 °F 20 °F (1980)
Degree Days  
Heating Degree Days 14    
Moisture  
Dew Point 37 °F    
Average Humidity 60    
Maximum Humidity 93    
Minimum Humidity 35    
Precipitation  
Precipitation 0.03 in - - ()
Sea Level Pressure  
Sea Level Pressure 29.87 in    
Wind  
Wind Speed 10 mph (South)    
Max Wind Speed 18 mph    
Max Gust Speed 26 mph    
Visibility 10 miles    
Events Rain    
Averages and records for this station are not official NWS values.
T = Trace of Precipitation, MM = Missing Value Source: NWS Daily Summary

Daily Weather History Graph

Daily Weather History Graph

Search for Another Location

Airport or City:

Trip Planner

Search our weather history database for the weather conditions in past years. The results will help you decide how hot, cold, wet, or windy it might be!

Date:

Astronomy

Sep. 02, 2014 Rise Set
Actual Time 6:33 AM AKDT 8:47 PM AKDT
Civil Twilight 5:45 AM AKDT 9:35 PM AKDT
Nautical Twilight 4:40 AM AKDT 10:38 PM AKDT
Astronomical Twilight 3:08 AM AKDT 12:07 AM AKDT
Moon 4:40 PM AKDT (9/2) 11:36 PM AKDT (9/2)
Length of Visible Light 15h 49m
Length of Day
14h 13m
First Quarter, 54% of the Moon is Illuminated
Sep 2
First Quarter
Sep 8
Full
Sep 15
Last Quarter
Sep 23
New
Oct 1
First Quarter

Hourly Weather History & Observations

Time (AKDT) Temp. Windchill Dew Point Humidity Pressure Visibility Wind Dir Wind Speed Gust Speed Precip Events Conditions
12:53 AM 48.9 °F - 30.9 °F 50% 29.89 in 10.0 mi SSW 9.2 mph - N/A   Mostly Cloudy
1:53 AM 48.9 °F - 33.1 °F 54% 29.88 in 10.0 mi WSW 6.9 mph - N/A   Overcast
2:53 AM 46.9 °F - 34.0 °F 61% 29.88 in 10.0 mi SSW 5.8 mph - N/A   Overcast
3:53 AM 46.9 °F - 34.0 °F 61% 29.88 in 10.0 mi SSW 8.1 mph - N/A   Overcast
4:53 AM 46.9 °F - 34.0 °F 61% 29.87 in 10.0 mi SSW 6.9 mph - N/A   Overcast
5:53 AM 46.9 °F - 34.0 °F 61% 29.86 in 10.0 mi South 10.4 mph - N/A   Overcast
6:53 AM 46.0 °F 41.4 °F 35.1 °F 66% 29.86 in 10.0 mi South 9.2 mph - N/A   Overcast
7:53 AM 46.9 °F - 35.1 °F 63% 29.86 in 10.0 mi South 11.5 mph - N/A   Overcast
8:53 AM 48.9 °F - 34.0 °F 56% 29.86 in 10.0 mi South 18.4 mph 24.2 mph N/A   Overcast
9:53 AM 51.1 °F - 35.1 °F 54% 29.85 in 10.0 mi South 15.0 mph 23.0 mph N/A   Partly Cloudy
10:53 AM 52.0 °F - 35.1 °F 53% 29.85 in 10.0 mi South 15.0 mph 21.9 mph N/A   Partly Cloudy
11:53 AM 53.1 °F - 37.0 °F 55% 29.85 in 10.0 mi SSE 15.0 mph 24.2 mph N/A   Mostly Cloudy
12:53 PM 55.0 °F - 37.0 °F 51% 29.85 in 10.0 mi South 16.1 mph 23.0 mph N/A   Mostly Cloudy
1:53 PM 57.0 °F - 37.0 °F 47% 29.86 in 10.0 mi SSE 16.1 mph 24.2 mph N/A   Overcast
2:53 PM 57.9 °F - 37.9 °F 47% 29.86 in 10.0 mi SSE 16.1 mph 25.3 mph N/A   Mostly Cloudy
3:53 PM 57.9 °F - 37.9 °F 47% 29.85 in 10.0 mi SSE 12.7 mph - N/A   Overcast
4:53 PM 59.0 °F - 37.9 °F 46% 29.84 in 10.0 mi SSE 17.3 mph 26.5 mph N/A   Mostly Cloudy
5:53 PM 57.9 °F - 37.9 °F 47% 29.84 in 10.0 mi SSE 16.1 mph 24.2 mph N/A   Overcast
7:53 PM 55.9 °F - 37.9 °F 51% 29.84 in 10.0 mi SSE 9.2 mph - N/A   Overcast
8:53 PM 52.0 °F - 42.1 °F 69% 29.86 in 10.0 mi SE 4.6 mph - 0.01 in Rain Light Rain
9:53 PM 48.0 °F - 46.0 °F 93% 29.90 in 10.0 mi NNW 10.4 mph - 0.02 in Rain Light Rain
10:53 PM 44.1 °F 39.5 °F 41.0 °F 89% 29.92 in 10.0 mi North 8.1 mph - 0.01 in Rain Light Rain
11:50 PM 42.8 °F 40.1 °F 41.0 °F 93% 29.92 in 7.0 mi NNW 4.6 mph - 0.05 in Rain Light Rain
11:53 PM 43.0 °F 40.3 °F 41.0 °F 93% 29.95 in 7.0 mi NNW 4.6 mph - 0.05 in Rain Light Rain